Location: Unspecified
(0.0000°N, 0.0000°E)
Time: 12:23:01
(UTC+00:00)

Transit 2A - All Passes

Search period start: 23 March 2017 00:00
Search period end: 02 April 2017 00:00
Orbit: 602 x 957 km, 66.7° (Epoch: 21 March)

Date Brightness Start Highest point End Pass type
(mag) Time Alt. Az. Time Alt. Az. Time Alt. Az.
23 Mar - 03:49:25 10° SSE 03:52:43 16° ESE 03:55:50 10° ENE visible
23 Mar - 05:30:42 10° SW 05:35:48 35° WNW 05:40:28 10° N visible
23 Mar - 16:21:11 10° N 16:25:48 41° ENE 16:30:55 10° SE daylight
23 Mar - 18:06:58 10° W 18:08:57 12° WSW 18:10:59 10° SW daylight
24 Mar - 04:56:17 10° SSW 05:01:53 60° WNW 05:06:55 10° N visible
24 Mar - 15:47:55 10° NNE 15:51:54 24° ENE 15:56:12 10° SE daylight
24 Mar - 17:31:05 10° WNW 17:34:51 21° WSW 17:38:54 10° SSW daylight
25 Mar - 04:22:13 10° SSW 04:27:57 81° ESE 04:33:04 10° NNE visible
25 Mar - 15:15:23 10° NE 15:18:01 14° ENE 15:20:45 10° ESE daylight
25 Mar - 16:56:15 10° NW 17:00:48 34° WSW 17:05:49 10° S daylight
26 Mar - 03:48:28 10° S 03:53:58 48° ESE 03:58:54 10° NE visible
26 Mar - 05:35:53 10° W 05:36:41 10° WNW 05:37:28 10° WNW visible
26 Mar - 16:21:52 10° NNW 16:26:47 58° WSW 16:32:16 10° S daylight
27 Mar - 03:15:04 10° S 03:19:55 29° ESE 03:24:22 10° NE visible
27 Mar - 04:59:04 10° WSW 05:02:47 18° WNW 05:06:16 10° NNW visible
27 Mar - 15:47:50 10° NNW 15:52:49 82° ENE 15:58:23 10° SSE daylight
28 Mar - 02:42:13 10° SSE 02:45:51 17° ESE 02:49:17 10° ENE visible
28 Mar - 04:24:02 10° SW 04:28:54 31° WNW 04:33:20 10° N visible
28 Mar - 15:14:06 10° N 15:18:53 47° ENE 15:24:11 10° SE daylight
28 Mar - 17:00:58 10° WSW 17:02:05 11° WSW 17:03:13 10° SW daylight
29 Mar - 03:49:32 10° SSW 03:54:59 52° WNW 03:59:53 10° N visible
29 Mar - 14:40:44 10° NNE 14:44:59 28° ENE 14:49:36 10° SE daylight
29 Mar - 16:24:26 10° WNW 16:27:59 19° WSW 16:31:46 10° SSW daylight
30 Mar - 03:15:23 10° SSW 03:21:03 89° WNW 03:26:06 10° NNE visible
30 Mar - 14:07:56 10° NNE 14:11:05 17° ENE 14:14:25 10° ESE daylight
30 Mar - 15:49:26 10° NW 15:53:55 31° WSW 15:58:49 10° S daylight
31 Mar - 02:41:33 10° S 02:47:04 54° ESE 02:52:01 10° NNE night (unlit)
31 Mar - 15:14:58 10° NW 15:19:53 51° WSW 15:25:22 10° S daylight
01 Apr - 02:08:04 10° S 02:13:02 32° ESE 02:17:34 10° NE night (unlit)
01 Apr - 03:52:40 10° WSW 03:55:51 16° WNW 03:58:54 10° NW night (unlit)
01 Apr - 14:40:51 10° NNW 14:45:54 88° WSW 14:51:33 10° SSE daylight
